This is the latest recevied weather packets stored in our database for station/object W4NRG-1. If no packets are shown the sender has not sent any weather packets the latest 1 day(s).
| Time | Temp. | Humidity | Pressure | Rain* | Wind** | Luminosity | Snow |
|---|---|---|---|---|---|---|---|
| 1836274371 | 18.33° C | 98% | 1018.7 hPa | 0 mm | 0 m/s | - | - |
| 1836274225 | 18.33° C | 98% | 1019 hPa | 0 mm | 0 m/s | - | - |
| 1778046587 | 20° C | 69% | 1013.1 hPa | 0 mm | 1.34 m/s, 95° | - | - |
| 1778046284 | 20° C | 68% | 1013.3 hPa | 0 mm | 0.89 m/s, 98° | - | - |
| 1778045980 | 20° C | 68% | 1013.1 hPa | 0 mm | 0.89 m/s, 73° | - | - |
| 1778045678 | 20° C | 68% | 1013 hPa | 0 mm | 1.79 m/s, 118° | - | - |
| 1778045377 | 20.56° C | 67% | 1013.1 hPa | 0 mm | 0 m/s | - | - |
| 1778045075 | 20.56° C | 67% | 1013.3 hPa | 0 mm | 1.79 m/s, 67° | - | - |
| 1778044772 | 20.56° C | 67% | 1013.4 hPa | 0 mm | 1.34 m/s, 313° | - | - |
| 1778044469 | 20.56° C | 67% | 1013.4 hPa | 0 mm | 1.79 m/s, 99° | - | - |
| 1778044166 | 20.56° C | 67% | 1013.4 hPa | 0 mm | 1.79 m/s, 86° | - | - |
| 1778043863 | 20.56° C | 66% | 1013.6 hPa | 0 mm | 0.89 m/s, 354° | - | - |
| 1778043560 | 20.56° C | 66% | 1013.4 hPa | 0 mm | 0.45 m/s, 86° | - | - |
| 1778043257 | 20.56° C | 66% | 1013.4 hPa | 0 mm | 2.68 m/s, 7° | - | - |
| 1778042954 | 20.56° C | 65% | 1013.4 hPa | 0 mm | 0.89 m/s, 333° | - | - |
| 1778042652 | 20.56° C | 65% | 1013.5 hPa | 0 mm | 2.68 m/s, 317° | - | - |
| 1778042349 | 21.11° C | 65% | 1013.6 hPa | 0 mm | 2.24 m/s, 332° | - | - |
| 1778042046 | 21.11° C | 64% | 1013.2 hPa | 0 mm | 0.89 m/s, 26° | - | - |
| 1778041744 | 21.11° C | 64% | 1013.3 hPa | 0 mm | 0.45 m/s, 59° | - | - |
| 1778041443 | 21.11° C | 63% | 1013.3 hPa | 0 mm | 0.89 m/s, 17° | - | - |
| 1778041141 | 21.11° C | 63% | 1013.3 hPa | 0 mm | 2.24 m/s, 74° | - | - |
| 1778040838 | 21.11° C | 62% | 1013.1 hPa | 0 mm | 1.79 m/s, 322° | - | - |
| 1778040535 | 21.11° C | 62% | 1013.3 hPa | 0 mm | 1.79 m/s, 5° | - | - |
| 1778040232 | 21.11° C | 61% | 1013.4 hPa | 0 mm | 1.79 m/s, 33° | - | - |
| 1778039928 | 21.67° C | 61% | 1013.3 hPa | 0 mm | 0 m/s | - | - |
* Rain latest hour (hover to see other rain measurements)
** Current wind speed in m/s (hover to see current wind gust speed)